Weather History for Tampico, Mexico

Change the Weather History Date:

Wednesday, January 9, 2013

  Actual Average Record
Temperature  
Mean Temperature 73 °F -  
Max Temperature 80 °F 73 °F 84 °F (2012)
Min Temperature 66 °F 59 °F 50 °F (1997)
Cooling Degree Days 8    
Growing Degree Days 23 (Base 50)    
Moisture  
Dew Point 64 °F    
Average Humidity 82    
Maximum Humidity 99    
Minimum Humidity 63    
Precipitation  
Precipitation 0.04 in - - ()
Sea Level Pressure  
Sea Level Pressure 29.91 in    
Wind  
Wind Speed 10 mph ()    
Max Wind Speed 29 mph    
Max Gust Speed 34 mph    
Visibility 6.1 miles    
Events Rain    
Averages and records for this station are not official NWS values.
T = Trace of Precipitation, MM = Missing Value Source: Averaged Metar Reports

Daily Weather History Graph

Daily Weather History Graph

Search for Another Location

Airport:

Trip Planner

Search our weather history database for the weather conditions in past years. The results will help you decide how hot, cold, wet, or windy it might be!

Date:

Astronomy

Jan. 09, 2013 Rise Set
Actual Time 7:12 AM CST 6:04 PM CST
Civil Twilight 6:48 AM CST 6:28 PM CST
Nautical Twilight 6:21 AM CST 6:56 PM CST
Astronomical Twilight 5:53 AM CST 7:23 PM CST
Moon 4:53 AM CST (1/9) 4:08 PM CST (1/9)
Length of Visible Light 11h 40m
Length of Day
10h 51m
Waning Crescent, 6% of the Moon is Illuminated
Jan 9
Waning Crescent
Jan 11
New
Jan 18
First Quarter
Jan 26
Full
Feb 3
Last Quarter

Hourly Weather History & Observations

Time (CST) Temp. Dew Point Humidity Pressure Visibility Wind Dir Wind Speed Gust Speed Precip Events Conditions
2:40 AM 70 °F 69 °F 97% 29.83 in 6 mi East 11.2 mph - - Rain Light Drizzle
5:40 AM 67 °F 67 °F 99% 29.88 in 6 mi NW 4.5 mph - -   Partly Cloudy
5:41 AM 66.2 °F 64.4 °F 94% 29.81 in 4.0 mi NW 8.1 mph - N/A   Overcast
6:49 AM 66.2 °F 64.4 °F 94% 29.86 in 4.0 mi NW 6.9 mph - N/A   Overcast
7:06 AM 66.2 °F 64.4 °F 94% 29.86 in 3.0 mi NW 6.9 mph - N/A   Overcast
7:47 AM 68.0 °F 64.4 °F 88% 29.88 in 3.0 mi NNW 4.6 mph - N/A   Mostly Cloudy
8:40 AM 69 °F 66 °F 89% 29.94 in 6 mi WNW 2.2 mph - -   Overcast
8:43 AM 69.8 °F 64.4 °F 83% 29.91 in 3.0 mi NW 4.6 mph - N/A   Mostly Cloudy
9:59 AM 71.6 °F 64.4 °F 78% 29.93 in 3.0 mi WNW 6.9 mph - N/A   Mostly Cloudy
10:42 AM 73.4 °F 64.4 °F 73% 29.93 in 4.0 mi WNW 8.1 mph - N/A   Mostly Cloudy
11:40 AM 79 °F 69 °F 63% 29.95 in 11 mi WSW 4.5 mph - -   Partly Cloudy
11:42 AM 75.2 °F 66.2 °F 73% 29.87 in 5.0 mi West 5.8 mph - N/A   Scattered Clouds
12:41 PM 77.0 °F 68.0 °F 74% 29.88 in 4.0 mi ENE 4.6 mph - N/A   Scattered Clouds
1:47 PM 71.6 °F 66.2 °F 83% 29.87 in 4.0 mi NNE 19.6 mph - N/A   Overcast
2:40 PM 74 °F 66 °F 70% 29.90 in 12 mi NNE 13.4 mph - -   Scattered Clouds
2:45 PM 71.6 °F 64.4 °F 78% 29.86 in 7.0 mi NNE 23.0 mph - N/A   Mostly Cloudy
3:40 PM 69.8 °F 64.4 °F 83% 29.86 in 7.0 mi NNE 28.8 mph - N/A   Mostly Cloudy
4:47 PM 68.0 °F 62.6 °F 83% 29.88 in 7.0 mi NNE 23.0 mph 34.5 mph N/A   Mostly Cloudy
5:40 PM 67 °F 61 °F 76% 29.94 in 12 mi NNE 15.7 mph - -   Mostly Cloudy
5:47 PM 68.0 °F 66.2 °F 94% 29.89 in 7.0 mi NNE 23.0 mph 34.5 mph N/A   Overcast
6:43 PM 66.2 °F 59.0 °F 78% 29.93 in 7.0 mi North 28.8 mph - N/A   Overcast
7:47 PM 66.2 °F 60.8 °F 83% 29.96 in 7.0 mi North 23.0 mph - N/A   Overcast
8:41 PM 66.2 °F 60.8 °F 83% 29.99 in 7.0 mi North 23.0 mph - N/A   Light Drizzle
8:45 PM 67 °F 61 °F 75% 30.02 in 6 mi North 8.9 mph - - Rain Light Drizzle
9:45 PM 66.2 °F 59.0 °F 78% 30.00 in 7.0 mi North 23.0 mph - N/A   Light Drizzle
10:46 PM 66.2 °F 57.2 °F 73% 30.01 in 7.0 mi North 23.0 mph - N/A   Overcast
11:45 PM 67 °F 59 °F 68% 30.04 in 6 mi North 11.2 mph - -   Partly Cloudy